Presure
121 136 131 135 216 187 185 91 138 181 128 155 124 195 124 178 136 144 246 173 163 170 143 125 134 132 146 138 140 152 128 139 125 134 124 118 97 137 125 85 143 135 125
133 137 166 201 190 159 191 117 215 183 181 227 203 198 146 191 156 149 169 109 108 119 135 130 122 142 142 152 146 122 141 150 120 141 133 140 125 125 124 131 132 147 172
132 161 147 139 189 122 182 161 137 125 108 130 135 133 156 180 193 132 132 189 132 140 143 149 122 121 149 120 113 133 120 101 117 124 121 122 118 138 134 105 150 138 166
142 204 216 156 205 209 194 125 168 211 224 121 168 114 124 167 191 178 171 154 101 130 134 187 187 125 109 114 127 114 135 138 108 89 127 114 133 139 124 128 170 131 150
151 157 224 235 232 220 139 220 123 135 172 141 120 121 93 152 132 97 228 99 160 110 157 138 109 127 114 113 150 128 103 110 103 85 108 102 101 96 109 135 122 179 152
101 313 259 181 152 208 280 183 182 303 134 122 103 141 122 124 194 153 153 93 111 185 171 122 135 130 143 119 81 179 117 123 132 120 105 106 116 96 125 132 139 141 142
407 425 215 265 250 417 425 329 386 133 211 205 167 183 125 133 105 142 120 136 92 103 130 136 134 142 123 121 103 103 109 124 139 110 118 112 132 139 170 126 158 152 186
126 126 159 102 172 406 408 147 154 227 275 245 179 176 191 138 123 141 154 93 118 128 98 104 132 138 194 129 129 100 106 109 118 115 130 124 145 134 122 145 177 174 141
373 172 126 138 106 117 100 118 229 211 260 115 155 189 243 154 224 173 150 127 125 129 121 133 115 133 130 123 104 97 125 126 115 128 124 111 141 134 141 154 159 175 167
185 136 257 118 140 124 131 118 124 215 197 196 239 242 110 209 115 233 133 132 138 133 132 107 119 161 123 109 120 127 151 116 115 156 133 142 129 132 150 173 168 173 196
157 166 131 270 118 159 192 128 127 118 116 136 251 149 157 122 95 101 115 147 141 131 125 137 171 105 120 109 135 172 172 142 172 140 166 152 159 147 152 161 175 167 173
126 141 171 136 204 147 133 127 150 149 142 125 152 144 171 170 126 182 207 179 99 98 178 135 111 165 181 148 190 159 214 157 135 175 133 119 135 175 181 172 179 154 165
294 177 157 177 146 163 169 168 190 163 153 157 224 157 146 149 245 216 141 156 114 202 171 193 179 138 174 139 178 177 164 204 191 128 113 146 146 172 170 177 151 185 172
260 280 297 172 169 157 164 188 175 204 151 201 146 156 156 141 135 163 144 147 150 151 168 176 191 155 175 162 194 187 200 158 159 155 176 173 193 175 178 173 178 184 186
253 280 283 309 167 161 175 141 173 165 161 167 148 164 149 199 171 190 150 155 157 166 184 161 150 186 188 185 202 187 156 170 188 146 179 156 167 175 187 179 170 191 195
240 259 272 309 171 192 169 223 238 208 186 204 187 161 165 158 192 197 197 187 160 170 192 222 175 165 199 128 142 175 179 166 188 154 198 161 187 184 157 163 173 177 180
230 246 265 266 221 171 185 174 175 178 189 160 158 186 161 164 165 162 188 187 176 187 180 157 170 187 211 193 184 162 163 197 177 169 183 179 150 171 186 179 193 204 208
247 243 272 223 217 197 195 194 166 166 192 169 210 205 193 205 182 179 183 171 185 185 195 213 183 191 149 170 179 181 146 184 190 190 186 206 186 180 187 188 189 185 177
249 256 253 214 210 202 229 188 181 208 188 206 210 210 206 201 193 163 167 149 182 184 194 166 174 180 212 202 175 215 197 196 154 213 189 173 194 191 183 197 193 190 162
232 256 271 206 211 211 204 199 207 219 229 179 184 181 187 211 206 222 194 193 160 189 163 164 182 178 192 196 211 183 164 188 171 203 194 166 181 209 204 191 177 170 194
259 248 263 227 203 209 221 202 225 207 167 209 194 214 210 204 200 201 207 189 182 200 188 176 181 185 188 187 182 197 192 179 183 173 166 194 177 195 186 184 195 186 181
219 241 261 227 222 212 208 200 170 216 212 181 201 213 191 192 193 202 209 193 218 197 194 192 167 203 190 175 185 199 197 188 184 196 189 190 189 177 182 207 196 169 176
252 251 195 234 206 215 183 187 193 187 229 216 231 197 212 212 156 203 203 199 196 194 173 182 191 181 193 209 193 181 187 194 192 168 171 200 200 200 197 180 169 175 182
212 223 229 241 210 190 235 188 209 225 203 216 178 193 186 199 171 213 177 174 220 177 203 184 184 201 191 200 205 189 191 198 168 200 164 181 196 174 198 174 182 201 197
251 265 248 201 204 214 172 225 199 209 177 179 211 180 218 215 194 194 189 207 194 208 191 201 195 190 207 200 184 186 187 193 204 194 190 185 210 207 169 196 204 201 195
252 263 273 257 211 223 229 209 259 200 216 218 174 170 176 193 218 198 184 204 198 210 192 171 203 184 180 203 197 198 199 200 196 213 188 221 193 218 198 200 191 178 192
Wind_Speed
37 48 45 52 80 71 68 32 30 58 42 38 37 63 39 54 44 44 80 44 44 52 40 33 36 40 41 35 34 40 26 35 25 31 24 25 38 31 30 32 42 30 53
53 52 66 75 75 67 69 36 78 55 57 69 64 54 41 71 40 41 39 28 27 27 38 38 31 41 40 44 38 29 36 42 27 37 38 41 24 28 29 31 34 46 51
55 60 58 50 73 40 63 61 37 43 30 45 42 42 41 51 64 37 42 58 46 44 43 46 27 38 43 28 30 30 22 32 24 25 21 26 27 35 32 50 46 38 53
58 60 87 59 66 67 65 39 69 75 71 37 43 33 43 39 65 46 46 50 21 37 37 58 53 37 31 31 33 29 35 44 40 37 24 35 39 40 34 41 56 37 43
59 57 83 86 82 75 43 79 42 39 55 46 39 43 32 43 42 31 94 28 50 29 51 46 30 39 38 33 50 34 41 40 43 31 42 45 44 49 50 41 41 60 46
29 56 71 42 42 71 59 55 50 52 50 46 33 49 40 39 75 50 42 34 28 62 53 43 49 42 49 41 33 60 39 32 41 36 48 49 46 53 45 42 49 46 43
22 24 28 35 45 34 30 54 45 48 57 81 47 56 46 51 39 46 38 46 30 39 49 54 51 52 46 47 45 49 49 51 40 41 46 50 43 48 64 52 62 57 60
35 39 31 34 30 18 17 27 42 69 61 81 52 57 58 49 45 51 49 35 46 54 35 36 50 54 67 43 48 54 52 55 50 62 43 56 53 45 52 57 74 71 57
33 47 46 40 34 42 28 32 64 61 79 30 54 61 100 59 87 53 54 55 56 54 45 59 50 56 45 43 53 53 54 42 56 51 50 50 54 55 61 63 68 78 74
55 47 31 42 43 44 33 41 42 61 58 49 84 87 42 71 39 96 55 53 64 60 55 45 52 64 46 50 51 52 57 58 61 63 52 56 55 52 67 80 74 80 77
49 49 49 33 42 44 47 47 39 46 42 45 84 57 58 43 44 42 46 60 64 56 50 56 73 54 50 52 55 73 73 63 75 57 73 72 72 67 68 75 86 80 81
39 47 56 38 48 44 49 47 46 44 45 47 45 40 43 46 46 64 75 61 53 57 73 61 59 68 82 62 84 71 76 69 52 79 53 76 61 86 90 80 91 54 64
40 41 50 62 42 45 44 44 50 50 48 44 84 44 41 39 95 76 44 53 48 71 71 78 82 62 80 57 85 83 72 80 85 77 67 56 64 83 79 86 63 97 66
17 19 16 59 61 51 44 51 59 61 42 57 24 44 44 31 30 58 45 49 53 58 70 75 91 64 80 72 93 94 88 75 67 67 90 82 96 88 87 84 86 97 100
18 30 16 17 65 59 63 41 58 52 51 61 29 54 39 84 65 78 49 56 59 68 87 66 60 93 95 93 90 95 64 85 93 84 92 74 86 94 102 96 66 96 105
25 17 21 20 68 64 63 75 76 72 67 83 69 54 56 55 82 89 98 83 62 73 98 91 84 75 99 70 55 86 91 88 103 65 108 78 106 105 61 70 93 95 97
48 36 30 45 72 63 69 64 61 67 69 41 49 61 56 59 64 63 88 89 77 92 84 55 79 95 99 98 94 75 80 109 100 84 94 98 61 94 106 103 113 112 110
33 48 21 74 77 70 72 72 61 60 76 64 94 96 79 102 79 78 85 75 86 96 104 86 97 105 60 82 92 83 67 102 110 102 107 111 105 103 107 100 95 84 87
32 36 44 72 74 73 78 69 64 79 76 84 90 97 99 97 91 58 64 54 89 96 112 75 80 95 103 110 90 107 113 109 76 108 110 84 108 107 86 108 109 104 66
54 31 31 71 74 78 72 69 79 74 88 44 68 67 75 100 100 100 98 104 65 103 72 78 99 93 115 106 99 109 79 113 89 116 116 75 99 120 120 104 93 81 121
30 45 34 73 64 72 82 70 87 76 57 83 69 95 96 76 90 99 105 70 84 113 81 88 96 103 102 108 100 112 119 113 116 99 88 124 104 129 116 109 126 114 105
20 60 42 71 78 72 70 67 24 77 80 49 79 90 63 85 82 101 108 94 102 109 111 109 84 115 115 104 117 126 127 127 118 129 125 124 122 105 109 133 128 87 99
45 39 16 74 62 76 29 23 42 47 82 88 93 81 99 104 57 95 111 106 106 113 83 98 113 99 117 125 115 115 124 130 131 98 104 134 134 136 126 113 96 108 122
16 58 63 66 60 33 83 31 67 84 77 91 51 71 60 86 59 112 68 73 112 86 122 110 109 127 126 135 128 126 136 139 100 141 95 118 133 107 125 105 119 140 137
23 20 46 42 42 72 25 78 66 54 46 52 84 61 98 114 90 92 96 123 106 128 114 129 130 120 142 142 117 131 130 142 150 137 131 128 148 149 100 141 148 145 137
5 2 2 23 62 75 71 73 67 72 86 89 59 66 68 92 111 111 102 127 128 139 132 89 140 122 115 145 140 138 141 146 130 153 125 153 128 155 146 135 137 113 142
Wind_Direction
245 260 257 259 237 238 245 228 216 237 240 236 243 241 249 240 248 243 214 241 243 250 249 265 258 262 263 269 269 268 283 281 291 292 301 310 306 312 314 317 319 316 311
259 262 240 244 242 245 247 228 244 245 240 245 247 229 239 220 230 241 231 249 258 250 253 257 258 260 262 263 264 276 276 276 286 285 286 288 317 315 313 319 316 315 308
256 247 253 257 243 227 233 249 210 231 235 234 234 238 248 239 231 239 243 238 254 255 259 252 255 260 261 264 275 267 273 291 287 289 294 298 308 308 313 312 313 318 312
254 258 243 254 247 247 246 234 240 250 242 223 242 228 239 236 233 241 239 227 250 253 256 244 245 257 275 267 265 269 270 272 289 287 294 291 299 301 302 303 299 305 311
253 254 250 244 246 251 231 246 238 233 252 219 226 236 236 234 240 243 223 233 237 261 249 256 272 255 268 269 266 265 278 274 287 312 282 290 291 293 292 306 292 296 304
224 241 247 226 226 247 243 222 239 223 230 248 238 226 243 235 227 235 231 243 256 244 247 259 256 258 262 266 300 261 268 272 278 271 284 284 287 290 300 303 308 303 307
162 181 209 236 244 228 235 230 227 226 228 235 231 239 241 238 247 228 233 235 259 259 254 254 259 262 261 265 265 269 267 272 283 279 279 276 299 305 294 304 301 313 294
213 209 220 215 200 220 209 209 222 218 219 213 230 231 222 242 237 225 217 269 254 257 261 263 262 264 251 256 256 271 264 271 277 279 284 283 290 304 283 310 293 294 300
101 234 217 207 228 225 224 228 223 212 200 229 223 213 207 232 225 232 230 247 253 257 261 260 261 262 264 251 253 280 264 266 264 284 276 294 298 279 303 307 307 301 307
237 221 196 231 214 222 221 228 223 224 217 239 216 215 236 223 241 222 242 243 242 254 259 259 261 262 261 259 264 268 274 264 277 278 287 287 284 293 307 295 303 302 292
236 245 228 183 227 235 214 226 235 238 241 228 209 221 227 239 252 249 253 241 244 257 260 260 255 266 260 271 273 274 273 283 277 282 276 276 292 306 304 303 296 304 302
248 233 242 223 214 228 226 233 232 232 234 236 234 228 235 243 240 237 238 245 261 264 254 256 258 266 258 256 262 274 260 283 274 279 277 269 292 288 287 298 292 305 295
54 234 237 236 226 219 233 224 228 230 239 237 212 240 241 244 207 228 258 251 273 235 257 241 258 267 263 271 271 273 280 264 270 275 291 299 293 290 292 292 285 294 307
78 54 45 230 237 241 233 221 236 211 239 196 256 252 247 260 255 238 267 268 267 267 261 260 255 274 269 276 259 267 261 258 287 287 280 289 279 292 294 291 297 296 296
108 68 64 84 233 240 231 218 237 223 248 246 270 254 262 229 247 240 273 266 267 262 255 269 280 259 261 266 253 267 284 275 269 265 283 297 293 290 285 294 298 294 295
143 135 114 98 228 208 237 195 186 209 233 218 233 266 261 275 239 237 238 250 271 265 252 238 265 275 255 253 281 272 273 269 271 297 269 303 278 283 297 301 300 299 299
174 171 160 168 186 232 220 238 237 239 231 262 276 240 276 269 268 274 246 250 260 254 256 282 265 261 249 260 268 289 291 264 269 292 281 284 287 293 284 291 286 290 292
168 178 174 184 193 210 214 216 251 255 232 262 218 224 239 227 248 253 250 267 257 259 254 251 266 261 276 275 266 263 278 275 272 278 279 276 282 288 290 293 294 290 298
175 189 185 197 203 213 196 230 240 220 239 228 223 225 229 234 244 280 271 259 261 260 254 264 269 263 260 262 271 264 269 272 274 275 280 286 287 291 287 293 295 298 281
193 193 197 210 208 211 219 226 220 223 212 262 255 260 254 235 234 233 248 250 277 257 277 262 269 278 265 270 268 280 286 281 292 278 284 285 293 289 291 295 300 291 298
187 196 201 202 223 221 212 231 213 229 247 231 249 229 234 242 242 245 243 263 266 249 268 275 271 268 269 274 277 271 274 286 284 288 290 284 290 287 295 294 292 301 298
199 202 206 211 212 227 231 240 247 227 230 281 245 233 256 259 267 252 246 260 247 258 259 263 276 260 269 276 274 270 272 277 282 277 284 288 285 293 292 286 292 289 291
211 216 265 212 239 227 224 249 226 276 227 236 232 264 242 244 266 253 255 258 262 264 275 275 272 280 273 261 271 277 276 271 274 282 286 279 282 284 284 285 288 292 292
196 216 220 214 240 266 220 248 246 234 258 238 278 279 254 264 264 251 268 280 253 278 262 277 279 264 274 267 266 271 276 272 276 275 276 285 285 283 278 283 289 284 284
237 241 229 236 229 239 249 232 264 253 269 272 258 279 253 251 277 271 271 259 269 260 278 267 273 273 265 268 274 279 274 275 273 277 279 281 280 282 276 284 283 284 288
91 100 238 247 246 247 248 256 248 262 253 255 272 270 273 280 258 272 281 262 267 260 275 275 269 273 275 269 276 275 273 274 272 275 279 273 282 277 279 278 284 280 285